www.pogodaiklimat.ru

Погода и климат >> Архив погоды >> Австралия >> Tennant Creek Airport


ПОГОДА в Tennant Creek Airport

  • Прогноз погоды в Tennant Creek Airport
  • Монитор погоды в Tennant Creek Airport
  • Климат города

АРХИВ ПОГОДЫ в Tennant Creek Airport

Время (UTC), дата Ветер
(напр.,м/с)
 
Видим.   Явления Облачность Т
(С)
Тd
(С)
f
(%)
Тe
(С)
Тes
(С)
Комфортность P
(гПа)
Po
(гПа)
Тmin
(С)
Tmax
(С)
R
(мм)
R24
(мм)
S
(см)
23 17.04 В 8 н/о н/о +26.6 +6.6 28 +26 +26 жарко 1014.3 971.9
00 18.04 В 9 н/о н/о +28.7 +6.7 25 +28 +28 жарко 1014.7 972.3
02 18.04 В 8 н/о н/о +32.3 +6.5 20 +30 +30 жарко 1013.4 971.1
03 18.04 В 6 н/о н/о +33.4 +5.9 18 +31 +31 жарко 1012.3 970.0
05 18.04 В 6 н/о н/о +34.4 +5.0 16 +32 +32 жарко 1010.2 968.0
06 18.04 СВ 4 н/о н/о +35.1 +5.5 16 +33 +33 жарко 1009.7 967.5
08 18.04 В 4 н/о н/о +33.8 +5.4 17 +31 +31 жарко 1010.0 967.8
09 18.04 В 4 н/о н/о +31.9 +5.4 19 +30 +30 жарко 1010.5 968.3
11 18.04 В 3 н/о н/о +28.6 +7.2 26 +28 +28 жарко 1012.0 969.7
12 18.04 ЮВ 4 н/о н/о +28.3 +7.0 26 +28 +28 жарко 1012.6 970.3
14 18.04 В 3 н/о н/о +25.5 +7.6 32 +26 +26 жарко 1012.8 970.5
15 18.04 В 3 н/о н/о +25.5 +7.1 31 +25 +25 комфорт 1012.3 970.0
17 18.04 ЮВ 4 н/о н/о +25.4 +6.1 29 +25 +25 комфорт 1011.3 969.1
18 18.04 СВ 5 н/о н/о +25.6 +6.8 30 +25 +25 комфорт 1012.2 969.9
20 18.04 В 5 н/о н/о +23.6 +6.4 33 +24 +24 комфорт 1012.5 970.2
21 18.04 В 4 н/о н/о +22.7 +6.5 35 +23 +23 комфорт 1012.7 970.4
23 18.04 В 6 н/о н/о +27.2 +7.1 28 +27 +27 жарко 1013.9 971.5
00 19.04 СВ 5 н/о н/о +29.5 +9.6 29 +29 +29 жарко 1014.1 971.7
02 19.04 СВ 5 н/о н/о +33.2 +12.2 28 +33 +33 жарко 1012.9 970.6
03 19.04 В 5 н/о н/о +34.3 +12.0 26 +34 +34 очень
жарко
1012.0 969.7
05 19.04 СВ 5 н/о н/о +35.0 +9.4 21 +34 +34 очень
жарко
1010.4 968.2
06 19.04 ЮВ 5 н/о н/о +34.8 +8.5 20 +33 +33 жарко 1010.1 967.9
08 19.04 В 5 н/о н/о +34.2 +9.4 22 +33 +33 жарко 1010.3 968.1
09 19.04 В 4 н/о н/о +32.2 +9.7 25 +32 +32 жарко 1010.8 968.6
11 19.04 В 3 н/о н/о +28.8 +7.9 27 +28 +28 жарко 1012.2 969.9
12 19.04 В 2 н/о н/о +27.3 +7.7 29 +27 +27 жарко 1012.6 970.3
14 19.04 В 3 н/о н/о +25.8 +8.3 33 +26 +26 жарко 1012.2 969.9
15 19.04 В 3 н/о н/о +25.6 +8.6 34 +26 +26 жарко 1012.1 969.8
17 19.04 В 5 н/о н/о +24.6 +8.5 36 +25 +25 комфорт 1011.8 969.5
18 19.04 В 4 н/о н/о +24.4 +9.2 38 +25 +25 комфорт 1011.6 969.3
20 19.04 В 4 н/о н/о +22.9 +9.3 42 +24 +24 комфорт 1012.5 970.2
21 19.04 В 4 н/о н/о +22.0 +9.2 44 +23 +23 комфорт 1013.0 970.7
23 19.04 В 3 н/о н/о +27.0 +10.7 36 +28 +28 жарко 1014.2 971.8
00 20.04 С 3 н/о н/о +29.9 +16.7 45 +33 +33 душно 1014.5 972.1
02 20.04 СВ 4 н/о н/о +32.9 +14.5 33 +34 +34 очень
жарко
1013.7 971.4
03 20.04 В 5 н/о н/о +34.1 +12.4 27 +34 +34 очень
жарко
1012.5 970.2
05 20.04 СВ 5 н/о н/о +35.4 +11.1 23 +35 +35 очень
жарко
1010.9 968.7
06 20.04 В 5 н/о н/о +35.6 +9.2 20 +34 +34 очень
жарко
1010.5 968.3
08 20.04 В 4 н/о н/о +34.2 +8.8 21 +33 +33 жарко 1010.7 968.5
09 20.04 В 4 н/о н/о +32.4 +10.4 26 +32 +32 жарко 1011.5 969.2
11 20.04 В 2 н/о н/о +27.4 +11.4 37 +28 +28 жарко 1012.9 970.6
12 20.04 В 2 н/о н/о +26.7 +12.0 40 +28 +28 жарко 1013.3 971.0
14 20.04 В 3 н/о н/о +26.6 +11.1 38 +28 +28 жарко 1013.0 970.7
15 20.04 В 3 н/о н/о +26.0 +11.0 39 +27 +27 жарко 1013.0 970.7
17 20.04 ЮВ 5 н/о н/о +25.7 +9.9 37 +26 +26 жарко 1012.5 970.2
18 20.04 В 4 н/о н/о +24.3 +9.1 38 +25 +25 комфорт 1012.6 970.3
20 20.04 В 4 н/о н/о +23.4 +5.8 32 +24 +24 комфорт 1013.0 970.7
21 20.04 В 4 н/о н/о +23.3 +4.8 30 +23 +23 комфорт 1013.5 971.2
23 20.04 В 7 н/о н/о +27.1 +4.2 23 +26 +26 жарко 1014.2 971.8
00 21.04 В 7 н/о н/о +29.1 +6.5 24 +28 +28 жарко 1014.5 972.1
02 21.04 СВ 4 н/о н/о +33.3 +10.6 25 +33 +33 жарко 1014.1 971.7
03 21.04 В 4 н/о н/о +34.6 +9.8 22 +34 +34 очень
жарко
1012.7 970.4
05 21.04 В 5 н/о н/о +35.7 +6.9 17 +33 +33 жарко 1011.1 968.9
06 21.04 В 7 н/о н/о +36.1 +5.4 15 +33 +33 жарко 1010.6 968.4
08 21.04 ЮВ 7 н/о н/о +34.2 +1.9 13 +31 +31 жарко 1010.9 968.7
09 21.04 ЮВ 4 н/о н/о +32.3 +2.4 15 +29 +29 жарко 1011.5 969.2
11 21.04 ЮВ 4 н/о н/о +30.4 +3.4 18 +28 +28 жарко 1012.6 970.3
12 21.04 В 4 н/о н/о +29.0 +3.8 20 +27 +27 жарко 1013.0 970.7
14 21.04 ЮВ 5 н/о н/о +26.7 +4.5 24 +26 +26 жарко 1012.9 970.6
15 21.04 ЮВ 4 н/о н/о +26.2 +5.2 26 +25 +25 комфорт 1012.8 970.5
17 21.04 ЮВ 6 н/о н/о +26.9 +5.2 25 +26 +26 жарко 1012.3 970.0
18 21.04 ЮВ 6 н/о н/о +26.8 +5.1 25 +26 +26 жарко 1012.2 969.9
20 21.04 ЮВ 6 н/о н/о +26.0 +5.0 26 +25 +25 комфорт 1012.8 970.5
21 21.04 В 6 н/о н/о +25.6 +5.8 28 +25 +25 комфорт 1013.2 970.9
23 21.04 В 8 н/о н/о +27.6 +6.4 26 +27 +27 жарко 1014.3 971.9
00 22.04 В 9 н/о н/о +29.5 +8.0 26 +29 +29 жарко 1014.6 972.2
02 22.04 В 8 н/о н/о +32.7 +8.2 22 +31 +31 жарко 1013.9 971.5
03 22.04 В 8 н/о н/о +34.5 +7.5 19 +33 +33 жарко 1012.6 970.3
05 22.04 В 8 н/о н/о +34.8 +6.2 17 +33 +33 жарко 1010.7 968.5
06 22.04 ЮВ 7 н/о н/о +34.8 +5.3 16 +32 +32 жарко 1010.3 968.1
08 22.04 В 7 н/о н/о +33.4 +3.3 15 +31 +31 жарко 1010.6 968.4
09 22.04 ЮВ 4 н/о н/о +31.4 +3.4 17 +29 +29 жарко 1011.3 969.1
11 22.04 ЮВ 5 н/о н/о +28.5 +3.4 20 +27 +27 жарко 1013.1 970.8
12 22.04 В 4 н/о н/о +26.9 +3.4 22 +26 +26 жарко 1013.6 971.3
14 22.04 ЮВ 5 н/о н/о +26.3 +4.1 24 +25 +25 комфорт 1013.5 971.2
15 22.04 ЮВ 5 н/о н/о +25.8 +4.3 25 +25 +25 комфорт 1013.4 971.1
17 22.04 В 5 н/о н/о +23.7 +4.6 29 +23 +23 комфорт 1012.8 970.5
18 22.04 В 5 н/о н/о +23.2 +4.2 29 +23 +23 комфорт 1012.8 970.5
20 22.04 ЮВ 6 н/о н/о +22.3 +4.4 31 +22 +22 комфорт 1013.4 971.1
21 22.04 ЮВ 6 н/о н/о +21.9 +4.5 32 +22 +22 комфорт 1013.9 971.5
23 22.04 В 7 н/о н/о +26.1 +6.7 29 +26 +26 жарко 1015.2 972.8
00 23.04 В 8 н/о н/о +28.6 +7.2 26 +28 +28 жарко 1015.3 972.9
02 23.04 В 8 н/о н/о +31.7 +6.0 20 +30 +30 жарко 1014.3 971.9
03 23.04 В 6 н/о н/о +32.7 +4.5 17 +30 +30 жарко 1013.1 970.8
05 23.04 В 6 н/о н/о +33.3 +2.2 14 +30 +30 жарко 1011.0 968.8
06 23.04 В 7 н/о н/о +32.9 +2.9 15 +30 +30 жарко 1010.7 968.5
08 23.04 В 5 н/о н/о +32.2 +3.2 16 +30 +30 жарко 1010.9 968.7
09 23.04 ЮВ 3 н/о н/о +30.1 +2.4 17 +28 +28 жарко 1011.7 969.4
11 23.04 В 3 н/о н/о +26.4 +3.6 23 +25 +25 комфорт 1013.0 970.7
12 23.04 В 3 н/о н/о +25.3 +4.4 26 +25 +25 комфорт 1013.3 971.0
14 23.04 В 3 н/о н/о +23.9 +4.8 29 +24 +24 комфорт 1013.1 970.8
15 23.04 В 4 н/о н/о +23.8 +5.2 30 +24 +24 комфорт 1013.2 970.9
17 23.04 В 4 н/о н/о +22.1 +4.2 31 +22 +22 комфорт 1012.5 970.2
18 23.04 В 5 н/о н/о +22.1 +3.7 30 +22 +22 комфорт 1012.4 970.1
20 23.04 В 5 н/о н/о +21.5 +3.2 30 +22 +22 комфорт 1013.1 970.8
21 23.04 В 4 н/о н/о +21.2 +2.5 29 +21 +21 комфорт 1013.9 971.5
23 23.04 В 6 н/о н/о +25.5 +2.9 23 +24 +24 комфорт 1015.4 973.0
00 24.04 В 6 н/о н/о +28.1 +3.7 21 +27 +27 жарко 1015.9 973.5
02 24.04 В 6 н/о н/о +31.0 +3.1 17 +29 +29 жарко 1014.5 972.1
03 24.04 В 5 н/о н/о +32.3 +2.4 15 +29 +29 жарко 1013.1 970.8
05 24.04 В 5 н/о н/о +33.1 +1.0 13 +30 +30 жарко 1011.0 968.8
06 24.04 В 5 н/о н/о +32.8 +0.8 13 +30 +30 жарко 1010.5 968.3
08 24.04 ЮВ 5 н/о н/о +31.6 -0.1 13 +28 +28 жарко 1010.8 968.6
09 24.04 В 3 н/о н/о +29.4 +1.0 16 +27 +27 жарко 1011.6 969.3
11 24.04 ЮВ 4 н/о н/о +26.8 +2.7 21 +25 +25 комфорт 1013.0 970.7
12 24.04 В 4 н/о н/о +25.7 +3.0 23 +25 +25 комфорт 1013.3 971.0
14 24.04 В 3 н/о н/о +23.4 +3.9 28 +23 +23 комфорт 1012.8 970.5
15 24.04 В 4 н/о н/о +22.8 +3.9 29 +23 +23 комфорт 1012.4 970.1
17 24.04 В 4 н/о н/о +22.0 +4.1 31 +22 +22 комфорт 1011.6 969.3
18 24.04 В 4 н/о н/о +21.3 +3.5 31 +21 +21 комфорт 1011.7 969.4
20 24.04 В 4 н/о н/о +20.4 +2.7 31 +21 +21 комфорт 1012.4 970.1

 

Местоположение метеостанции Tennant Creek Airport (Северная территория, Австралия): широта -19.63 долгота 134.18 высота над уровнем моря 377 м.

В архиве по умолчанию представлена погода в Tennant Creek Airport за последнюю неделю. Архивные данные за месяц целиком и за предыдущие месяцы, начиная с января 2011 года, Вы можете получить, выбрав интересующий диапазон дат из раскрывающегося списка и нажав кнопку "Ввод!".


*Определитесь, кто Вы:
робот инопланетянин человек

Внимание! Время в таблицах - всемирное. Для получения местного времени необходимо прибавить поправку, которая в Tennant Creek Airport равна 9.5 ч.

Смотрите также архив погоды в соседних городах и на ближайших метеорологических станциях:

Погода в Territory Grape Farm (Северная территория, Австралия) (319 км)
Погода в Daly Waters Aws (Северная территория, Австралия) (386 км)
Погода в Lajamanu (Северная территория, Австралия) (400 км)
Погода в Mcarthur River Mine (Северная территория, Австралия) (408 км)
Погода в Camooweal Township (Квинсленд, Австралия) (413 км)
Погода в Jervois (Северная территория, Австралия) (422 км)
Погода в Rabbit Flat (Северная территория, Австралия) (439 км)
Погода в Borroloola (Северная территория, Австралия) (454 км)
Погода в Alice Springs Airport (Северная территория, Австралия) (465 км)
Погода в Century Mine (Квинсленд, Австралия) (485 км)

Пояснения к столбцам:

Ветер - указаны скорость ветра в м/с - средняя за 10 мин, порывы в срок и между сроками (в фигурных скобках) и направление, откуда дует ветер: С - северный, СВ - северо-восточный, В - восточный, ЮВ - юго-восточный, Ю - южный, ЮЗ - юго-западный, З - западный, СЗ - северо-западный.
Видимость - горизонтальная дальность видимости в метрах или километрах. При видимости от 1 до 10 км при отсутствии осадков обычно наблюдается дымка, при ухудшении видимости до 1 км и менее - туман. В сухую погоду видимость может ухудшаться дымом, пылью или мглою.
Явления - указаны атмосферные явления, наблюдавшиеся в срок или в последний час перед сроком; фигурными скобками обозначены явления, наблюдавшиеся между сроками (за 1-3 часа до срока); квадратными скобками обозначены град или гололедные отложения с указанием их диаметра в мм.
Облачность - указаны через наклонную черту общая и нижняя облачность в баллах и высота нижней границы облаков в метрах; квадратными скобками обозначены формы облаков: Ci - перистые, Cs - перисто-слоистые, Cc - перисто-кучевые, Ac - высококучевые, As - высокослоистые, Sc - слоисто-кучевые, Ns - слоисто-дождевые, Cu - кучевые, Cb - кучево-дождевые. Подробнее классификацию облаков см. в Атласе облаков (PDF).
T - Температура воздуха - температура, измеренная на высоте 2 м над землей.
Td - Температура точки росы - температура, при понижении до которой содержащийся в воздухе водяной пар достигнет насыщения.
f - Относительная влажность воздуха - влажноcть воздуха, измеренная на высоте 2 м над землей.
Te - Эффективная температура - температура, которую ощущает одетый по сезону человек в тени. Характеристика душности погоды. При расчете учитывается влияние влажности воздуха и скорости ветра на теплоощущения человека.
Tes - Эффективная температура на солнце - температура, которую ощущает человек, с поправкой на солнечный нагрев. Характеристика знойности погоды. Зависит от высоты солнца над горизонтом, облачности и скорости ветра. Ночью, в пасмурную погоду, а также при ветре 12 м/с и более поправка равна нулю.
P - Атмосферное давление - приведенное к уровню моря атмосферное давление.
Po - Атмосферное давление - измеренное на уровне метеостанции атмосферное давление.
Tmin - Минимальная температура - минимум температуры воздуха на высоте 2 м над землей.
Tmax - Максимальная температура - максимум температуры воздуха на высоте 2 м над землей.
R - Количество осадков - Количество выпавших осадков за период времени, мм. При наведении курсора мыши на число - период времени, за который выпало указанное количество осадков.
R24 - Количество осадков - Количество выпавших осадков за 24 часа, мм.
S - Снежный покров - Высота снежного покрова, см. При наведении курсора мыши на число - состояние снежного покрова и степень покрытия местности в баллах.